EUTELSAT KONNECT VHTS

Last updated on Thu Aug 13 2026 00:03:02 GMT+0000 (Coordinated Universal Time)

1 53765U 22110A 26224.28744887 -.00000001 00000+0 00000+0 0 9996 2 53765 0.0568 100.8303 0002734 14.8800 311.1799 1.00269208 7397
UTC large
Height (km)
Speed (km/s)
/
Latitude / Longitude
Inclination (degrees)
Orbital Period (minutes)
Azimuth
Elevation
Range (km)
Doppler Factor

Next 0 passes for location: London (51.5072 / 0.1276)

No passes found over London.
EUTELSAT KONNECT VHTS